Stations météo

réclame
Mon MeteoGroup
Ajaccio, France (7761): Température de l'air & dewpoint: 14.06.2018 17:00:00 - 20.06.2018 17:00:00 (CEST)Ajaccio, France (7761): Température de l'air 5cm: 14.06.2018 17:00:00 - 20.06.2018 17:00:00 (CEST)Ajaccio, France (7761): Température de l'air -20cm & Température de l'air -100cm: 14.06.2018 17:00:00 - 20.06.2018 17:00:00 (CEST)Ajaccio, France (7761): Vitesse du vent & gusts: 14.06.2018 17:00:00 - 20.06.2018 17:00:00 (CEST)Ajaccio, France (7761): Direction du vent: 14.06.2018 17:00:00 - 20.06.2018 17:00:00 (CEST)Ajaccio, France (7761): reduced air pressure: 14.06.2018 17:00:00 - 20.06.2018 17:00:00 (CEST)Ajaccio, France (7761): visibility: 14.06.2018 17:00:00 - 20.06.2018 17:00:00 (CEST)Ajaccio, France (7761): Ensoleillement: 14.06.2018 17:00:00 - 20.06.2018 17:00:00 (CEST)Ajaccio, France (7761): Quantités de précipitations: 14.06.2018 17:00:00 - 20.06.2018 17:00:00 (CEST)
Date & Time tt [°C] td [°C] tt 5cm [°C] tt -20cm [°C] tt -100cm [°C] ff [km/h] ff [knt] fx [km/h] fx [knt] dd ppp [hPa] vv [km] sd [min] rr [mm]
20.06.2018 17:00:00 27,8 17,9 30,2 26,5 23,0 7 4 16 8 SW 1017,6 36 33 0,0
20.06.2018 16:00:00 27,1 17,8 32,0 26,3 23,0 9 5 16 9 SSW 1018,0 22 57 0,0
20.06.2018 15:00:00 27,3 19,9 35,6 26,0 23,0 11 6 17 9 SW 1018,1 18 60 0,0
20.06.2018 14:00:00 26,9 19,3 35,7 25,9 23,0 13 7 19 10 SW 1018,4 18 60 0,0
20.06.2018 13:00:00 26,8 19,7 37,6 25,8 23,0 11 6 17 9 SW 1018,7 17 60 0,0
20.06.2018 12:00:00 26,3 20,2 36,0 25,9 23,0 12 6 23 12 WSW 1018,9 17 60 0,0
20.06.2018 11:00:00 25,8 19,4 34,2 25,9 23,0 15 8 26 14 SW 1018,7 18 60 0,0
20.06.2018 10:00:00 25,5 17,4 33,2 26,0 23,0 13 7 18 10 SW 1018,7 18 60 0,0
20.06.2018 09:00:00 25,7 15,4 26,0 26,2 23,0 6 4 12 6 SSE 1018,6 13 60 0,0
20.06.2018 08:00:00 22,2 16,0 19,3 26,3 23,0 9 5 16 9 NNE 1018,3 37 60 0,0
20.06.2018 07:00:00 19,0 14,9 17,1 26,5 23,0 12 6 17 9 NNE 1018,2 39 32 0,0
20.06.2018 06:00:00 18,1 14,4 16,8 26,7 23,0 13 7 18 10 NE 1018,0 28 0 0,0
20.06.2018 05:00:00 18,2 14,9 16,8 26,8 22,9 13 7 17 9 NNE 1018,1 28 0 0,0
20.06.2018 04:00:00 18,3 15,2 16,9 26,9 22,9 8 4 12 7 NE 1018,2 23 0 0,0
20.06.2018 03:00:00 19,0 15,3 17,1 27,1 22,9 5 3 15 8 NE 1018,2 20 0 0,0
20.06.2018 02:00:00 19,4 16,1 18,1 27,2 22,9 11 6 15 8 NE 1018,3 22 0 0,0
20.06.2018 01:00:00 20,0 16,4 18,7 27,3 22,9 12 6 15 8 NE 1018,4 21 0 0,0
20.06.2018 00:00:00 20,4 16,8 19,1 27,3 22,9 10 5 14 7 NE 1018,7 17 0 0,0
19.06.2018 23:00:00 21,7 17,3 20,0 27,4 22,9 7 4 10 5 ENE 1018,6 20 0 0,0
19.06.2018 22:00:00 22,9 17,8 20,5 27,2 22,9 6 3 7 4 NE 1018,0 22 0 0,0
19.06.2018 21:00:00 24,7 20,0 22,6 27,2 22,9 6 3 12 7 WSW 1017,5 27 27 0,0
19.06.2018 20:00:00 26,4 18,3 28,0 26,9 22,9 10 5 16 9 SSW 1017,2 41 60 0,0
19.06.2018 19:00:00 27,2 17,1 30,8 26,7 22,9 11 6 21 12 S 1017,0 32 60 0,0
19.06.2018 18:00:00 27,5 19,3 30,8 26,4 22,8 14 7 24 13 SSW 1017,2 26 60 0,0
19.06.2018 17:00:00 27,7 20,0 30,7 26,1 22,8 16 8 25 13 SSW 1017,7 22 60 0,0
19.06.2018 16:00:00 27,3 21,6 31,7 25,9 22,8 15 8 24 13 SSW 1017,8 19 60 0,0
19.06.2018 15:00:00 27,4 21,9 34,6 25,7 22,8 16 9 22 12 SSW 1018,0 20 60 0,0
19.06.2018 14:00:00 26,8 20,9 36,1 25,5 22,8 16 8 22 12 SSW 1018,1 20 60 0,0
19.06.2018 13:00:00 26,5 20,8 37,1 25,4 22,8 14 8 24 13 SW 1018,2 20 60 0,0
19.06.2018 12:00:00 25,9 19,1 35,1 25,4 22,8 13 7 19 10 SW 1018,3 17 60 0,0
19.06.2018 11:00:00 25,7 19,8 33,8 25,5 22,7 15 8 19 10 SSW 1018,1 32 60 0,0
19.06.2018 10:00:00 25,5 18,2 33,1 25,6 22,7 12 6 16 9 SSW 1018,1 20 60 0,0
19.06.2018 09:00:00 26,0 16,5 24,7 25,8 22,7 2 1 12 6 E 1017,8 36 60 0,0
19.06.2018 08:00:00 21,3 16,5 18,3 25,9 22,7 9 5 14 7 NE 1017,7 31 60 0,0
19.06.2018 07:00:00 17,9 14,4 15,9 26,1 22,8 8 5 15 8 NE 1017,5 41 32 0,0
19.06.2018 06:00:00 16,8 14,3 15,9 26,2 22,7 7 4 18 10 NE 1017,2 21 0 0,0
19.06.2018 05:00:00 17,2 15,2 16,0 26,4 22,7 8 4 14 8 NE 1017,0 20 0 0,0
19.06.2018 04:00:00 17,7 15,3 16,4 26,5 22,7 7 4 14 7 NE 1016,9 20 0 0,0
19.06.2018 03:00:00 18,6 15,8 17,4 26,7 22,7 10 5 14 8 NE 1016,7 19 0 0,0
19.06.2018 02:00:00 19,1 16,7 17,8 26,8 22,7 8 4 13 7 NE 1016,7 15 0 0,0
19.06.2018 01:00:00 19,7 17,1 18,4 26,8 22,7 8 5 12 7 NE 1017,0 14 0 0,0
19.06.2018 00:00:00 20,5 17,9 19,3 26,9 22,7 8 5 11 6 NE 1017,1 14 0 0,0
18.06.2018 23:00:00 21,6 18,8 20,0 26,9 22,7 4 2 6 3 NE 1017,0 12 0 0,0
18.06.2018 22:00:00 22,8 19,0 20,9 26,9 22,7 3 1 10 5 E 1016,6 19 0 0,0
18.06.2018 21:00:00 23,8 18,7 22,4 26,8 22,6 2 1 14 7 NNW 1015,9 22 27 0,0
18.06.2018 20:00:00 25,3 19,0 27,8 26,6 22,6 8 4 11 6 SW 1015,5 24 60 0,0
18.06.2018 19:00:00 26,3 18,4 28,3 26,4 22,6 5 3 19 11 SSW 1015,2 20 56 0,0
18.06.2018 18:00:00 26,4 19,8 26,5 26,1 22,6 14 8 23 12 S 1015,2 20 55 0,0
18.06.2018 17:00:00 24,9 19,9 26,5 25,9 22,6 16 9 26 14 S 1015,3 20 50 0,0
18.06.2018 16:00:00 25,7 19,6 29,8 25,7 22,6 18 10 26 14 SSW 1015,4 18 60 0,0
18.06.2018 15:00:00 25,6 19,0 33,6 25,4 22,6 16 9 22 12 SW 1015,5 18 60 0,0
18.06.2018 14:00:00 25,3 19,2 34,3 25,3 22,6 16 9 26 14 SW 1015,5 17 60 0,0
18.06.2018 13:00:00 25,2 19,1 34,7 25,2 22,6 19 10 27 14 SW 1015,9 18 60 0,0
18.06.2018 12:00:00 25,2 19,1 33,8 25,2 22,6 17 9 23 13 SW 1015,6 18 60 0,0
18.06.2018 11:00:00 24,1 18,1 29,5 25,2 22,6 13 7 20 11 WSW 1015,4 20 43 0,0
18.06.2018 10:00:00 23,3 17,1 30,5 25,3 22,5 8 5 13 7 WSW 1015,3 20 58 0,0
18.06.2018 09:00:00 23,1 17,8 20,3 25,5 22,6 3 2 8 4 N 1015,3 16 52 0,0
18.06.2018 08:00:00 19,3 16,3 18,6 25,6 22,6 5 3 14 8 ENE 1015,0 21 28 0,0
18.06.2018 07:00:00 18,0 15,4 16,4 25,7 22,5 8 4 13 7 NNE 1014,9 25 21 0,0
18.06.2018 06:00:00 17,4 15,6 16,4 25,9 22,5 6 3 11 6 ENE 1015,0 15 0 0,0
18.06.2018 05:00:00 17,9 16,1 16,6 26,0 22,5 8 5 12 6 NE 1014,8 17 0 0,0
18.06.2018 04:00:00 18,5 15,7 17,1 26,2 22,5 7 4 11 6 ENE 1014,5 27 0 0,0
18.06.2018 03:00:00 19,3 16,3 17,3 26,3 22,5 3 2 9 5 ENE 1015,1 25 0 0,0
18.06.2018 02:00:00 20,3 17,1 18,9 26,4 22,5 4 2 8 5 E 1015,4 19 0 0,0
18.06.2018 01:00:00 21,5 17,7 20,8 26,4 22,5 4 2 8 4 E 1015,6 22 0 0,0
18.06.2018 00:00:00 21,5 17,7 21,2 26,5 22,5 2 1 8 5 SSE 1015,7 20 0 0,0
17.06.2018 23:00:00 21,5 17,7 21,3 26,5 22,5 4 2 20 11 SW 1015,6 20 0 0,0
17.06.2018 22:00:00 21,6 17,8 21,0 26,5 22,5 10 5 16 9 SW 1015,3 22 0 0,0
17.06.2018 21:00:00 21,4 18,0 20,6 26,4 22,5 13 7 17 9 SW 1015,3 22 22 0,0
17.06.2018 20:00:00 22,5 18,1 24,8 26,2 22,5 8 4 15 8 SW 1014,8 20 60 0,0
17.06.2018 19:00:00 23,6 18,5 28,4 26,0 22,5 11 6 21 11 SW 1015,0 20 60 0,0
17.06.2018 18:00:00 24,3 18,5 28,7 25,7 22,5 15 8 23 12 SW 1014,9 21 60 0,0
17.06.2018 17:00:00 25,1 19,5 28,8 25,5 22,5 16 8 23 12 SW 1014,9 20 60 0,0
17.06.2018 16:00:00 25,0 19,1 29,5 25,2 22,4 16 9 26 14 SW 1015,3 19 60 0,0
17.06.2018 15:00:00 24,8 19,0 32,8 25,0 22,4 16 9 23 12 SW 1015,3 22 60 0,0
17.06.2018 14:00:00 24,9 18,8 33,7 24,9 22,4 17 9 26 14 SW 1015,7 20 60 0,0
17.06.2018 13:00:00 24,7 18,4 33,7 24,8 22,4 16 9 24 13 SW 1015,9 26 60 0,0
17.06.2018 12:00:00 24,5 18,7 32,6 24,8 22,4 15 8 22 12 SW 1015,7 20 60 0,0
17.06.2018 11:00:00 23,6 18,3 30,7 24,9 22,4 13 7 16 9 WSW 1015,2 20 60 0,0
17.06.2018 10:00:00 22,9 17,6 23,6 24,9 22,4 5 3 9 5 WSW 1015,3 36 34 0,0
17.06.2018 09:00:00 21,3 16,9 23,6 25,1 22,4 4 2 8 4 SW 1015,8 25 17 0,0
17.06.2018 08:00:00 20,7 16,1 19,3 25,2 22,4 4 2 14 7 NE 1015,1 34 34 0,0
17.06.2018 07:00:00 18,4 15,5 17,6 25,2 22,4 10 5 16 9 NE 1014,6 30 7 0,0
17.06.2018 06:00:00 18,1 15,4 16,9 25,4 22,4 7 4 10 6 NE 1014,7 23 0 0,0
17.06.2018 05:00:00 18,8 15,8 17,5 25,5 22,4 8 5 15 8 NE 1014,2 24 0 0,0
17.06.2018 04:00:00 20,0 16,8 19,6 25,6 22,4 8 4 11 6 ENE 1014,4 31 0 0,0
17.06.2018 03:00:00 20,6 17,4 20,0 25,7 22,4 5 3 9 5 ENE 1014,6 33 0 0,0
17.06.2018 02:00:00 20,6 17,8 20,2 25,7 22,4 4 2 8 4 E 1014,6 21 0 0,0
17.06.2018 01:00:00 21,5 19,1 20,7 25,8 22,4 3 2 6 4 N 1014,6 16 0 0,0
17.06.2018 00:00:00 21,6 18,8 21,4 25,8 22,4 2 1 15 8 SE 1014,6 20 0 0,0
16.06.2018 23:00:00 21,7 19,1 20,2 25,8 22,4 7 4 13 7 WSW 1014,3 21 0 0,0
16.06.2018 22:00:00 21,6 19,2 20,4 25,8 22,4 10 5 26 14 SW 1013,7 20 0 0,0
16.06.2018 21:00:00 22,0 19,2 21,3 25,7 22,4 9 5 16 9 SW 1013,1 21 11 0,0
16.06.2018 20:00:00 23,3 19,2 25,1 25,5 22,4 13 7 23 12 SW 1013,1 31 58 0,0
16.06.2018 19:00:00 24,3 19,4 28,0 25,2 22,4 19 10 26 14 SW 1013,0 21 56 0,0
16.06.2018 18:00:00 25,1 19,9 28,2 25,0 22,4 16 9 23 12 SSW 1012,9 20 57 0,0
16.06.2018 17:00:00 25,3 19,4 29,2 24,7 22,3 18 10 26 14 SW 1013,0 22 60 0,0
16.06.2018 16:00:00 25,4 19,5 28,8 24,4 22,3 16 9 25 14 SW 1012,9 24 60 0,0
16.06.2018 15:00:00 25,4 19,3 32,6 24,1 22,3 17 9 24 13 SSW 1013,1 26 60 0,0
16.06.2018 14:00:00 25,1 19,0 33,9 24,0 22,4 18 10 32 17 SW 1013,1 28 60 0,0
16.06.2018 13:00:00 24,9 18,1 34,1 23,9 22,3 16 9 22 12 WSW 1013,2 33 60 0,0
16.06.2018 12:00:00 24,5 19,3 33,6 23,8 22,3 15 8 21 11 SW 1013,4 20 60 0,0
16.06.2018 11:00:00 23,6 18,9 33,0 23,9 22,3 15 8 26 14 SW 1013,3 48 60 0,0
16.06.2018 10:00:00 23,2 18,7 30,1 24,0 22,3 9 5 13 7 WSW 1013,1 56 60 0,0
16.06.2018 09:00:00 22,5 17,2 23,3 24,1 22,3 5 3 11 6 WSW 1012,9 44 60 0,0
16.06.2018 08:00:00 19,9 15,5 18,4 24,2 22,3 7 4 10 6 NE 1012,7 44 60 0,0
16.06.2018 07:00:00 17,5 14,2 15,3 24,4 22,3 6 4 15 8 NE 1012,6 37 33 0,0
16.06.2018 06:00:00 16,3 14,1 15,2 24,6 22,3 9 5 14 7 NE 1012,5 38 0 0,0
16.06.2018 05:00:00 16,8 14,4 15,5 24,7 22,3 6 4 16 8 NNE 1012,4 38 0 0,0
16.06.2018 04:00:00 17,0 14,8 15,7 24,8 22,3 9 5 16 9 NE 1012,6 32 0 0,0
16.06.2018 03:00:00 17,4 15,4 16,3 24,9 22,3 11 6 16 9 NE 1012,7 23 0 0,0
16.06.2018 02:00:00 18,1 16,1 17,0 25,0 22,3 9 5 13 7 NE 1012,8 26 0 0,0
16.06.2018 01:00:00 18,9 16,9 17,4 25,1 22,3 8 4 12 7 NE 1012,8 24 0 0,0
16.06.2018 00:00:00 19,5 17,3 18,1 25,2 22,3 6 3 15 8 NE 1012,8 17 0 0,0
15.06.2018 23:00:00 20,4 18,0 19,0 25,2 22,3 7 4 15 8 NE 1012,5 33 0 0,0
15.06.2018 22:00:00 21,2 18,6 19,4 25,1 22,3 5 3 7 4 E 1012,2 22 0 0,0
15.06.2018 21:00:00 22,0 19,0 20,9 25,1 22,3 4 2 11 6 S 1011,8 30 23 0,0
15.06.2018 20:00:00 23,1 18,8 23,6 25,0 22,3 8 5 14 7 SSW 1011,7 40 28 0,0
15.06.2018 19:00:00 24,0 18,6 25,0 24,8 22,3 8 5 21 11 SSW 1011,3 37 39 0,0
15.06.2018 18:00:00 24,8 18,5 27,3 24,6 22,3 14 8 23 12 SSW 1011,1 31 60 0,0
15.06.2018 17:00:00 25,0 18,9 27,7 24,3 22,3 16 9 24 13 SSW 1011,1 33 41 0,0
15.06.2018 16:00:00 24,0 19,1 28,1 24,0 22,3 13 7 25 14 SSW 1011,3 35 5 0,0
15.06.2018 15:00:00 25,5 19,2 32,5 23,8 22,3 18 10 25 14 S 1011,2 16 60 0,0
15.06.2018 14:00:00 24,9 19,5 30,0 23,6 22,3 16 9 22 12 SSW 1011,2 19 52 0,0
15.06.2018 13:00:00 24,6 19,9 27,7 23,5 22,3 14 8 24 13 SW 1011,3 20 52 0,0
15.06.2018 12:00:00 24,4 19,2 33,4 23,5 22,3 16 8 21 11 SW 1011,2 20 60 0,0
15.06.2018 11:00:00 23,9 17,6 32,4 23,5 22,3 14 8 19 11 WSW 1010,9 54 60 0,0
15.06.2018 10:00:00 23,5 17,9 29,9 23,6 22,3 9 5 12 6 SW 1010,6 60 60 0,0
15.06.2018 09:00:00 23,0 16,1 24,3 23,7 22,3 3 2 9 5 N 1010,6 20 60 0,0
15.06.2018 08:00:00 20,0 15,2 16,6 23,8 22,3 7 4 14 8 NNE 1010,5 60 50 0,0
15.06.2018 07:00:00 16,7 14,2 15,4 24,0 22,3 8 5 18 10 NE 1010,1 18 24 0,0
15.06.2018 06:00:00 16,1 14,3 15,3 24,2 22,3 12 6 18 10 NNE 1010,0 43 0 0,0
15.06.2018 05:00:00 16,5 14,5 15,3 24,3 22,3 11 6 16 9 NE 1009,9 37 0 0,0
15.06.2018 04:00:00 16,4 14,4 15,4 24,4 22,3 8 5 11 6 NE 1010,0 33 0 0,0
15.06.2018 03:00:00 17,0 14,8 15,8 24,5 22,3 8 4 12 6 ENE 1010,1 32 0 0,0
15.06.2018 02:00:00 17,6 15,0 16,4 24,7 22,3 9 5 19 10 NNE 1010,1 40 0 0,0
15.06.2018 01:00:00 18,1 15,7 17,1 24,7 22,3 10 5 16 9 NE 1010,2 41 0 0,0
15.06.2018 00:00:00 18,8 16,2 17,7 24,8 22,3 5 3 16 8 NE 1010,2 42 0 0,0
14.06.2018 23:00:00 19,5 16,5 18,5 24,8 22,3 11 6 16 9 ENE 1010,1 50 0 0,0
14.06.2018 22:00:00 20,4 17,4 19,1 24,8 22,3 9 5 13 7 E 1009,5 40 0 0,0
14.06.2018 21:00:00 21,7 17,9 20,1 24,7 22,3 5 3 9 5 WSW 1009,0 32 13 0,0
14.06.2018 20:00:00 23,3 17,3 24,9 24,6 22,3 7 4 10 5 SW 1008,6 46 58 0,0
14.06.2018 19:00:00 23,9 17,2 25,2 24,4 22,3 5 3 15 8 SSE 1008,3 54 48 0,0
14.06.2018 18:00:00 24,1 16,6 23,7 24,3 22,3 9 5 27 15 E 1008,1 56 44 0,0
14.06.2018 17:00:00 22,2 16,7 21,8 24,0 22,3 14 8 25 13 E 1008,5 57 0 0,2

tt = Température de l'air
td = dewpoint
tt 5cm = Température de l'air 5cm
tt -20cm = Température de l'air -20cm
tt -100cm = Température de l'air -100cm
ff = Vitesse du vent
fx = gusts
dd = Direction du vent
ppp = reduced air pressure
vv = visibility
sd = Ensoleillement
rr = Quantités de précipitations

stations d'obs. à proximité